Location: Dodgeville
(42.9600°N, 90.1300°W)
Time: 03:49:59
(UTC-06:00)

Uosat F - Visible Passes

Search period start: 20 January 2017 00:00
Search period end: 30 January 2017 00:00
Orbit: 750 x 761 km, 98.8° (Epoch: 19 January)

Date Brightness Start Highest point End Pass type
(mag) Time Alt. Az. Time Alt. Az. Time Alt. Az.
20 Jan 14.4 05:08:05 10° ENE 05:09:34 11° E 05:11:02 10° ESE visible
20 Jan 11.1 06:43:54 10° NNE 06:48:58 86° WNW 06:54:00 10° SSW visible
20 Jan 11.8 17:58:03 10° S 18:02:57 56° W 18:07:53 10° NNW visible
21 Jan 12.6 06:04:40 10° NNE 06:09:25 40° E 06:14:10 10° SSE visible
21 Jan 14.1 18:59:41 10° SW 19:02:41 16° W 19:05:41 10° NW visible
22 Jan 14.0 05:26:18 10° NE 05:29:39 18° E 05:33:00 10° SE visible
22 Jan 12.7 18:18:17 10° SSW 18:22:52 37° W 18:27:31 10° NNW visible
23 Jan 11.7 06:24:20 10° NNE 06:29:20 62° ESE 06:34:20 10° S visible
23 Jan 11.1 17:38:18 10° SSE 17:43:18 87° WSW 17:48:21 10° NNW visible
24 Jan 13.4 05:45:27 10° NE 05:49:41 27° E 05:53:55 10° SSE visible
24 Jan 13.5 18:38:50 10° SSW 18:42:52 24° W 18:46:55 10° NW visible
25 Jan 14.5 05:08:24 10° ENE 05:09:48 11° E 05:11:11 10° ESE visible
25 Jan 11.1 06:44:08 10° NNE 06:49:12 87° WNW 06:54:16 10° SSW visible
25 Jan 11.8 17:58:16 10° S 18:03:11 57° W 18:08:08 10° NNW visible
26 Jan 12.6 06:04:54 10° NNE 06:09:40 40° E 06:14:23 10° SSE visible
26 Jan 14.1 18:59:52 10° SW 19:02:54 16° W 19:05:57 10° NW visible
27 Jan 14.1 05:26:33 10° NE 05:29:54 17° E 05:33:12 10° SE visible
27 Jan 12.7 18:18:30 10° SSW 18:23:06 37° W 18:27:45 10° NNW visible
28 Jan 11.7 06:24:33 10° NNE 06:29:34 62° ESE 06:34:34 10° S visible
28 Jan 11.1 17:38:32 10° SSE 17:43:33 88° W 17:48:35 10° NNW visible
29 Jan 13.4 05:45:41 10° NE 05:49:56 26° E 05:54:08 10° SSE visible
29 Jan 13.5 18:39:02 10° SSW 18:43:05 25° W 18:47:10 10° NW visible
